| time (UTC) | temp F | wind direction | speed MPH | gust MPH | rain 1hr in | rain 24hr in | rain mn in | humidity % | barometer mb |
| 20260509011556 | 69 | 17 | 6.0 | 12.0 | 0.00 | 0.00 | 0.00 | 84 | 1014.5 |
| 20260509011046 | 69 | 21 | 4.0 | 10.0 | 0.00 | 0.00 | 0.00 | 84 | 1014.5 |
| 20260509010547 | 70 | 17 | 5.0 | 11.0 | 0.00 | 0.00 | 0.00 | 84 | 1014.6 |
| 20260509010051 | 70 | 12 | 2.0 | 11.0 | 0.00 | 0.00 | 0.00 | 83 | 1014.7 |
| 20260509005547 | 70 | 56 | 4.0 | 10.0 | 0.00 | 0.00 | 0.00 | 84 | 1014.7 |
| 20260509005047 | 70 | 30 | 4.0 | 11.0 | 0.00 | 0.00 | 0.00 | 83 | 1014.8 |
| 20260509004556 | 70 | 23 | 5.0 | 13.0 | 0.00 | 0.00 | 0.00 | 83 | 1014.7 |
| 20260509004048 | 70 | 5 | 5.0 | 15.0 | 0.00 | 0.00 | 0.00 | 83 | 1014.8 |
| 20260509003547 | 70 | 23 | 7.0 | 15.0 | 0.00 | 0.00 | 0.00 | 83 | 1014.8 |
| 20260509003048 | 71 | 342 | 10.0 | 15.0 | 0.00 | 0.00 | 0.00 | 82 | 1014.6 |
| 20260509002549 | 71 | 5 | 6.0 | 13.0 | 0.00 | 0.00 | 0.00 | 82 | 1014.7 |
| 20260509002047 | 71 | 10 | 7.0 | 13.0 | 0.00 | 0.00 | 0.00 | 82 | 1014.7 |
| 20260509001556 | 71 | 5 | 7.0 | 13.0 | 0.00 | 0.00 | 0.00 | 82 | 1014.6 |
| 20260509001047 | 71 | 31 | 7.0 | 13.0 | 0.00 | 0.00 | 0.00 | 82 | 1014.5 |
| 20260509000547 | 71 | 345 | 6.0 | 11.0 | 0.00 | 0.00 | 0.00 | 82 | 1014.5 |
| 20260509000051 | 72 | 20 | 6.0 | 11.0 | 0.00 | 0.00 | 0.00 | 81 | 1014.5 |
| 20260508235547 | 72 | 19 | 6.0 | 14.0 | 0.00 | 0.00 | 0.00 | 81 | 1014.3 |
| 20260508235048 | 72 | 11 | 9.0 | 14.0 | 0.00 | 0.00 | 0.00 | 81 | 1014.2 |
| 20260508234552 | 72 | 28 | 5.0 | 11.0 | 0.00 | 0.00 | 0.00 | 81 | 1014.1 |
| 20260508234051 | 72 | 18 | 5.0 | 9.0 | 0.00 | 0.00 | 0.00 | 81 | 1014.1 |
| 20260508233548 | 72 | 19 | 4.0 | 7.0 | 0.00 | 0.00 | 0.00 | 81 | 1014.2 |
| 20260508233102 | 72 | 22 | 3.0 | 8.0 | 0.00 | 0.00 | 0.00 | 80 | 1014.3 |
| 20260508232548 | 72 | 5 | 3.0 | 9.0 | 0.00 | 0.00 | 0.00 | 80 | 1014.0 |
| 20260508232045 | 72 | 10 | 3.0 | 9.0 | 0.00 | 0.00 | 0.00 | 80 | 1014.0 |
| 20260508231556 | 73 | 32 | 5.0 | 11.0 | 0.00 | 0.00 | 0.00 | 80 | 1013.9 |
| 20260508231044 | 73 | 38 | 4.0 | 12.0 | 0.00 | 0.00 | 0.00 | 80 | 1014.1 |
| 20260508230544 | 73 | 345 | 8.0 | 12.0 | 0.00 | 0.00 | 0.00 | 80 | 1014.2 |
| 20260508230052 | 73 | 355 | 4.0 | 12.0 | 0.00 | 0.00 | 0.00 | 80 | 1014.2 |
| 20260508225547 | 73 | 26 | 7.0 | 14.0 | 0.00 | 0.00 | 0.00 | 79 | 1014.2 |
| 20260508225047 | 73 | 344 | 8.0 | 15.0 | 0.00 | 0.00 | 0.00 | 79 | 1014.2 |
| 20260508224609 | 73 | 355 | 9.0 | 15.0 | 0.00 | 0.00 | 0.00 | 78 | 1014.2 |
| 20260508224047 | 73 | 338 | 9.0 | 13.0 | 0.00 | 0.00 | 0.00 | 78 | 1014.5 |
| 20260508223547 | 74 | 339 | 7.0 | 18.0 | 0.00 | 0.00 | 0.00 | 77 | 1014.4 |
| 20260508223052 | 74 | 321 | 8.0 | 18.0 | 0.00 | 0.00 | 0.00 | 76 | 1014.4 |
| 20260508222547 | 75 | 325 | 12.0 | 18.0 | 0.00 | 0.00 | 0.00 | 75 | 1014.3 |
| 20260508222048 | 76 | 310 | 9.0 | 17.0 | 0.00 | 0.00 | 0.00 | 74 | 1014.4 |
| 20260508221608 | 77 | 340 | 10.0 | 17.0 | 0.00 | 0.00 | 0.00 | 72 | 1014.2 |
| 20260508221048 | 79 | 332 | 8.0 | 15.0 | 0.00 | 0.00 | 0.00 | 72 | 1014.0 |
| 20260508220547 | 80 | 282 | 3.0 | 8.0 | 0.00 | 0.00 | 0.00 | 74 | 1013.7 |
| 20260508220055 | 81 | 259 | 4.0 | 8.0 | 0.00 | 0.00 | 0.00 | 73 | 1013.5 |
| 20260508215551 | 81 | 285 | 3.0 | 9.0 | 0.00 | 0.02 | 0.00 | 73 | 1013.5 |
| 20260508215048 | 81 | 240 | 3.0 | 9.0 | 0.00 | 0.02 | 0.00 | 72 | 1013.3 |
| 20260508214551 | 82 | 252 | 6.0 | 9.0 | 0.00 | 0.02 | 0.00 | 71 | 1013.4 |
| 20260508214049 | 82 | 321 | 4.0 | 9.0 | 0.00 | 0.02 | 0.00 | 71 | 1013.2 |
| 20260508213547 | 82 | 215 | 2.0 | 8.0 | 0.00 | 0.02 | 0.00 | 71 | 1013.3 |
| 20260508213055 | 82 | 225 | 3.0 | 9.0 | 0.00 | 0.02 | 0.00 | 71 | 1013.4 |
| 20260508212547 | 82 | 197 | 5.0 | 9.0 | 0.00 | 0.02 | 0.00 | 71 | 1013.4 |
| 20260508212049 | 82 | 223 | 4.0 | 8.0 | 0.00 | 0.02 | 0.00 | 71 | 1013.3 |
| 20260508211555 | 82 | 220 | 4.0 | 8.0 | 0.00 | 0.02 | 0.00 | 72 | 1013.2 |
| 20260508211045 | 82 | 234 | 4.0 | 8.0 | 0.00 | 0.02 | 0.00 | 71 | 1013.2 |
| 20260508210548 | 83 | 237 | 4.0 | 8.0 | 0.00 | 0.02 | 0.00 | 70 | 1013.1 |
| 20260508210057 | 83 | 242 | 2.0 | 8.0 | 0.00 | 0.02 | 0.00 | 74 | 1013.1 |
| 20260508205544 | 84 | 169 | 3.0 | 6.0 | 0.00 | 0.02 | 0.00 | 69 | 1013.2 |
| 20260508205047 | 83 | 244 | 3.0 | 5.0 | 0.00 | 0.02 | 0.00 | 71 | 1013.1 |
| 20260508204554 | 82 | 192 | 2.0 | 7.0 | 0.00 | 0.02 | 0.00 | 72 | 1013.1 |
| 20260508204048 | 82 | 164 | 4.0 | 7.0 | 0.00 | 0.02 | 0.00 | 71 | 1013.0 |
| 20260508203548 | 82 | 153 | 0.0 | 6.0 | 0.00 | 0.02 | 0.00 | 73 | 1012.9 |
| 20260508203059 | 81 | 153 | 1.0 | 6.0 | 0.00 | 0.02 | 0.00 | 73 | 1012.9 |
| 20260508202549 | 81 | 189 | 1.0 | 6.0 | 0.00 | 0.02 | 0.00 | 73 | 1012.9 |
| 20260508202048 | 81 | 56 | 3.0 | 6.0 | 0.00 | 0.02 | 0.00 | 73 | 1012.9 |
| 20260508201555 | 82 | 111 | 1.0 | 7.0 | 0.00 | 0.02 | 0.00 | 72 | 1013.1 |
| 20260508201048 | 81 | 38 | 3.0 | 7.0 | 0.00 | 0.02 | 0.00 | 73 | 1013.1 |
| 20260508200551 | 81 | 44 | 2.0 | 6.0 | 0.00 | 0.02 | 0.00 | 73 | 1013.0 |
| 20260508200108 | 81 | 85 | 2.0 | 7.0 | 0.00 | 0.02 | 0.00 | 73 | 1013.1 |
| 20260508195544 | 80 | 53 | 2.0 | 7.0 | 0.00 | 0.03 | 0.00 | 74 | 1012.9 |
| 20260508195047 | 80 | 42 | 2.0 | 6.0 | 0.00 | 0.03 | 0.00 | 77 | 1013.1 |
| 20260508194549 | 80 | 38 | 3.0 | 7.0 | 0.00 | 0.03 | 0.00 | 75 | 1013.4 |
| 20260508194044 | 80 | 57 | 3.0 | 7.0 | 0.00 | 0.03 | 0.00 | 74 | 1013.5 |
| 20260508193548 | 80 | 119 | 3.0 | 8.0 | 0.00 | 0.03 | 0.00 | 75 | 1013.4 |
| 20260508193101 | 79 | 53 | 4.0 | 9.0 | 0.00 | 0.03 | 0.00 | 75 | 1013.5 |
| 20260508192547 | 79 | 42 | 4.0 | 9.0 | 0.00 | 0.03 | 0.00 | 76 | 1013.5 |
| 20260508192046 | 78 | 65 | 2.0 | 7.0 | 0.00 | 0.03 | 0.00 | 77 | 1013.5 |
| 20260508191559 | 78 | 60 | 4.0 | 8.0 | 0.00 | 0.03 | 0.00 | 76 | 1013.6 |
| 20260508191047 | 78 | 96 | 3.0 | 8.0 | 0.00 | 0.03 | 0.00 | 76 | 1013.6 |
| 20260508190549 | 78 | 71 | 4.0 | 7.0 | 0.00 | 0.03 | 0.00 | 77 | 1013.7 |
| 20260508190051 | 77 | 49 | 3.0 | 7.0 | 0.00 | 0.03 | 0.00 | 77 | 1013.6 |
| 20260508185548 | 77 | 87 | 3.0 | 8.0 | 0.00 | 0.05 | 0.00 | 77 | 1013.8 |
| 20260508185045 | 77 | 69 | 4.0 | 8.0 | 0.00 | 0.05 | 0.00 | 76 | 1013.8 |
| 20260508184550 | 77 | 94 | 4.0 | 8.0 | 0.00 | 0.05 | 0.00 | 76 | 1013.9 |
| 20260508184047 | 78 | 93 | 4.0 | 8.0 | 0.00 | 0.05 | 0.00 | 76 | 1013.9 |
| 20260508183546 | 78 | 86 | 4.0 | 8.0 | 0.00 | 0.05 | 0.00 | 76 | 1013.9 |
| 20260508183104 | 77 | 92 | 3.0 | 11.0 | 0.00 | 0.05 | 0.00 | 76 | 1013.9 |
| 20260508182546 | 77 | 115 | 5.0 | 11.0 | 0.00 | 0.05 | 0.00 | 76 | 1013.9 |
| 20260508182054 | 77 | 49 | 4.0 | 10.0 | 0.00 | 0.05 | 0.00 | 76 | 1013.9 |
| 20260508181611 | 77 | 111 | 5.0 | 10.0 | 0.00 | 0.05 | 0.00 | 76 | 1014.0 |
| 20260508181045 | 78 | 107 | 5.0 | 10.0 | 0.00 | 0.05 | 0.00 | 76 | 1014.1 |
| 20260508180547 | 78 | 82 | 3.0 | 10.0 | 0.00 | 0.05 | 0.00 | 80 | 1014.1 |
| 20260508180052 | 76 | 125 | 3.0 | 10.0 | 0.00 | 0.05 | 0.00 | 78 | 1014.1 |
| 20260508175551 | 76 | 58 | 5.0 | 10.0 | 0.00 | 0.05 | 0.00 | 78 | 1014.1 |
| 20260508175049 | 76 | 60 | 4.0 | 9.0 | 0.00 | 0.05 | 0.00 | 78 | 1014.2 |
| 20260508174551 | 76 | 81 | 3.0 | 9.0 | 0.00 | 0.05 | 0.00 | 78 | 1014.4 |
| 20260508174048 | 76 | 38 | 3.0 | 10.0 | 0.00 | 0.05 | 0.00 | 78 | 1014.5 |
| 20260508173549 | 76 | 53 | 5.0 | 10.0 | 0.00 | 0.05 | 0.00 | 78 | 1014.5 |
| 20260508173058 | 76 | 55 | 5.0 | 10.0 | 0.00 | 0.05 | 0.00 | 78 | 1014.7 |
| 20260508172546 | 76 | 79 | 4.0 | 9.0 | 0.00 | 0.05 | 0.00 | 78 | 1014.6 |
| 20260508172045 | 75 | 97 | 4.0 | 11.0 | 0.00 | 0.05 | 0.00 | 79 | 1014.7 |
| 20260508171555 | 75 | 36 | 5.0 | 11.0 | 0.00 | 0.05 | 0.00 | 78 | 1014.9 |
| 20260508171047 | 75 | 15 | 6.0 | 10.0 | 0.00 | 0.05 | 0.00 | 78 | 1015.0 |
| 20260508170544 | 75 | 44 | 5.0 | 11.0 | 0.00 | 0.05 | 0.00 | 79 | 1015.0 |
| 20260508170100 | 75 | 48 | 6.0 | 12.0 | 0.00 | 0.05 | 0.00 | 79 | 1015.0 |
| 20260508165556 | 75 | 26 | 6.0 | 12.0 | 0.00 | 0.05 | 0.00 | 80 | 1015.0 |
| 20260508165044 | 74 | 24 | 5.0 | 12.0 | 0.00 | 0.05 | 0.00 | 81 | 1015.0 |
| 20260508164552 | 74 | 47 | 6.0 | 12.0 | 0.00 | 0.05 | 0.00 | 81 | 1015.0 |
| 20260508164047 | 73 | 25 | 5.0 | 12.0 | 0.00 | 0.05 | 0.00 | 81 | 1015.2 |
| 20260508163546 | 73 | 47 | 6.0 | 12.0 | 0.00 | 0.05 | 0.00 | 81 | 1015.3 |
| 20260508163055 | 73 | 49 | 6.0 | 12.0 | 0.00 | 0.05 | 0.00 | 81 | 1015.5 |
| 20260508162549 | 73 | 61 | 5.0 | 12.0 | 0.00 | 0.05 | 0.00 | 81 | 1015.5 |
| 20260508162048 | 73 | 43 | 6.0 | 11.0 | 0.00 | 0.05 | 0.00 | 81 | 1015.6 |
| 20260508161558 | 73 | 12 | 4.0 | 9.0 | 0.00 | 0.05 | 0.00 | 81 | 1015.8 |
| 20260508161048 | 73 | 46 | 5.0 | 9.0 | 0.00 | 0.05 | 0.00 | 81 | 1015.7 |
| 20260508160549 | 73 | 355 | 4.0 | 9.0 | 0.00 | 0.05 | 0.00 | 81 | 1015.7 |
| 20260508160100 | 73 | 98 | 3.0 | 9.0 | 0.00 | 0.05 | 0.00 | 81 | 1015.7 |
| 20260508155547 | 73 | 45 | 4.0 | 9.0 | 0.00 | 0.05 | 0.00 | 82 | 1015.6 |
| 20260508155047 | 73 | 66 | 3.0 | 7.0 | 0.00 | 0.05 | 0.00 | 82 | 1015.6 |
| 20260508154555 | 72 | 96 | 2.0 | 6.0 | 0.00 | 0.05 | 0.00 | 82 | 1015.8 |
| 20260508154044 | 72 | 60 | 3.0 | 8.0 | 0.00 | 0.05 | 0.00 | 82 | 1015.7 |
| 20260508153548 | 72 | 57 | 2.0 | 8.0 | 0.00 | 0.05 | 0.00 | 82 | 1015.8 |
| 20260508153057 | 72 | 95 | 3.0 | 8.0 | 0.00 | 0.05 | 0.00 | 82 | 1015.8 |
| 20260508152548 | 72 | 74 | 3.0 | 9.0 | 0.00 | 0.05 | 0.00 | 82 | 1015.6 |
| 20260508152047 | 72 | 82 | 3.0 | 9.0 | 0.00 | 0.05 | 0.00 | 81 | 1015.5 |
| 20260508151608 | 72 | 46 | 4.0 | 9.0 | 0.00 | 0.05 | 0.00 | 81 | 1015.6 |
| 20260508151045 | 72 | 54 | 4.0 | 8.0 | 0.00 | 0.05 | 0.00 | 81 | 1015.6 |
| 20260508150546 | 72 | 54 | 3.0 | 7.0 | 0.00 | 0.05 | 0.00 | 80 | 1015.7 |
| 20260508150124 | 72 | 65 | 3.0 | 7.0 | 0.00 | 0.05 | 0.00 | 80 | 1015.7 |
| 20260508145549 | 72 | 52 | 3.0 | 10.0 | 0.00 | 0.05 | 0.00 | 80 | 1015.7 |
| 20260508145045 | 72 | 57 | 4.0 | 10.0 | 0.00 | 0.05 | 0.00 | 81 | 1015.7 |
| 20260508144604 | 72 | 59 | 2.0 | 9.0 | 0.00 | 0.05 | 0.00 | 81 | 1015.7 |
| 20260508144048 | 72 | 13 | 4.0 | 9.0 | 0.00 | 0.05 | 0.00 | 80 | 1015.7 |
| 20260508143547 | 71 | 43 | 3.0 | 8.0 | 0.00 | 0.05 | 0.00 | 81 | 1015.7 |
| 20260508143054 | 71 | 62 | 2.0 | 9.0 | 0.00 | 0.05 | 0.00 | 81 | 1015.6 |
| 20260508142545 | 71 | 19 | 4.0 | 9.0 | 0.00 | 0.05 | 0.00 | 80 | 1015.6 |
| 20260508142052 | 71 | 44 | 4.0 | 9.0 | 0.00 | 0.05 | 0.00 | 80 | 1015.6 |
| 20260508141607 | 71 | 51 | 3.0 | 9.0 | 0.00 | 0.05 | 0.00 | 80 | 1015.8 |
| 20260508141046 | 71 | 33 | 4.0 | 9.0 | 0.00 | 0.05 | 0.00 | 81 | 1015.9 |
| 20260508140547 | 71 | 23 | 4.0 | 9.0 | 0.00 | 0.05 | 0.00 | 81 | 1015.8 |
| 20260508140107 | 71 | 42 | 3.0 | 8.0 | 0.00 | 0.05 | 0.00 | 81 | 1015.6 |
| 20260508135544 | 71 | 96 | 2.0 | 9.0 | 0.00 | 0.05 | 0.00 | 81 | 1015.6 |
| 20260508135045 | 71 | 78 | 4.0 | 11.0 | 0.00 | 0.05 | 0.00 | 81 | 1015.4 |
| 20260508134551 | 71 | 61 | 5.0 | 11.0 | 0.00 | 0.05 | 0.00 | 81 | 1015.6 |
| 20260508134044 | 71 | 49 | 3.0 | 11.0 | 0.00 | 0.05 | 0.00 | 81 | 1015.5 |
| 20260508133544 | 71 | 55 | 5.0 | 11.0 | 0.00 | 0.05 | 0.00 | 81 | 1015.6 |
| 20260508133052 | 71 | 44 | 5.0 | 11.0 | 0.00 | 0.05 | 0.00 | 81 | 1015.6 |
| 20260508132545 | 71 | 59 | 5.0 | 11.0 | 0.00 | 0.05 | 0.00 | 82 | 1015.6 |
| 20260508132048 | 71 | 35 | 4.0 | 12.0 | 0.00 | 0.05 | 0.00 | 82 | 1015.6 |
| 20260508131558 | 71 | 80 | 3.0 | 12.0 | 0.00 | 0.05 | 0.00 | 82 | 1015.6 |
| 20260508131047 | 71 | 49 | 4.0 | 11.0 | 0.00 | 0.05 | 0.00 | 83 | 1015.7 |
| 20260508130548 | 71 | 34 | 6.0 | 11.0 | 0.00 | 0.05 | 0.00 | 83 | 1015.6 |
| 20260508130057 | 70 | 45 | 4.0 | 9.0 | 0.00 | 0.05 | 0.00 | 83 | 1015.6 |
| 20260508125545 | 70 | 52 | 4.0 | 9.0 | 0.00 | 0.05 | 0.00 | 83 | 1015.6 |
| 20260508125048 | 70 | 78 | 2.0 | 8.0 | 0.00 | 0.05 | 0.00 | 84 | 1015.6 |
| 20260508124601 | 70 | 58 | 3.0 | 9.0 | 0.00 | 0.05 | 0.00 | 84 | 1015.7 |
| 20260508124050 | 70 | 39 | 5.0 | 9.0 | 0.00 | 0.05 | 0.00 | 84 | 1015.8 |
| 20260508123546 | 70 | 42 | 3.0 | 9.0 | 0.00 | 0.05 | 0.00 | 84 | 1015.7 |
| 20260508123051 | 70 | 55 | 5.0 | 9.0 | 0.00 | 0.05 | 0.00 | 84 | 1015.6 |
| 20260508122545 | 70 | 67 | 4.0 | 9.0 | 0.00 | 0.05 | 0.00 | 85 | 1015.5 |
| 20260508122047 | 70 | 61 | 4.0 | 8.0 | 0.00 | 0.05 | 0.00 | 85 | 1015.5 |
| 20260508121556 | 70 | 56 | 4.0 | 8.0 | 0.00 | 0.05 | 0.00 | 85 | 1015.4 |
| 20260508121047 | 70 | 61 | 4.0 | 9.0 | 0.00 | 0.05 | 0.00 | 86 | 1015.4 |
| 20260508120545 | 70 | 54 | 4.0 | 9.0 | 0.00 | 0.05 | 0.00 | 86 | 1015.2 |
| 20260508115549 | 70 | 76 | 3.0 | 9.0 | 0.00 | 0.05 | 0.00 | 86 | 1014.7 |
| 20260508115048 | 70 | 32 | 4.0 | 9.0 | 0.00 | 0.05 | 0.00 | 86 | 1015.0 |
| 20260508114603 | 70 | 53 | 4.0 | 11.0 | 0.00 | 0.05 | 0.00 | 86 | 1015.2 |
| 20260508114048 | 70 | 58 | 5.0 | 11.0 | 0.00 | 0.05 | 0.00 | 86 | 1015.1 |
| 20260508113545 | 70 | 47 | 3.0 | 8.0 | 0.00 | 0.05 | 0.00 | 86 | 1015.0 |
| 20260508113124 | 70 | 65 | 3.0 | 11.0 | 0.00 | 0.05 | 0.00 | 86 | 1014.9 |
| 20260508112550 | 70 | 61 | 4.0 | 11.0 | 0.00 | 0.05 | 0.00 | 87 | 1014.7 |
| 20260508112047 | 70 | 55 | 3.0 | 7.0 | 0.00 | 0.05 | 0.00 | 87 | 1014.5 |
| 20260508111556 | 70 | 78 | 3.0 | 8.0 | 0.00 | 0.05 | 0.00 | 87 | 1014.6 |
| 20260508111047 | 70 | 74 | 3.0 | 8.0 | 0.00 | 0.05 | 0.00 | 87 | 1014.6 |
| 20260508110544 | 70 | 47 | 4.0 | 8.0 | 0.00 | 0.05 | 0.00 | 87 | 1014.6 |
| 20260508110054 | 70 | 30 | 3.0 | 7.0 | 0.00 | 0.05 | 0.00 | 87 | 1014.4 |
| 20260508105546 | 70 | 53 | 1.0 | 7.0 | 0.00 | 0.05 | 0.00 | 86 | 1014.2 |
| 20260508105048 | 70 | 34 | 2.0 | 8.0 | 0.00 | 0.05 | 0.00 | 86 | 1014.1 |
| 20260508104557 | 70 | 41 | 3.0 | 8.0 | 0.00 | 0.05 | 0.00 | 86 | 1014.1 |
| 20260508104045 | 70 | 24 | 3.0 | 8.0 | 0.00 | 0.05 | 0.00 | 86 | 1014.0 |
| 20260508103545 | 70 | 22 | 2.0 | 8.0 | 0.00 | 0.05 | 0.00 | 86 | 1014.1 |
| 20260508103105 | 70 | 17 | 4.0 | 9.0 | 0.00 | 0.05 | 0.00 | 86 | 1014.2 |
| 20260508102545 | 70 | 28 | 4.0 | 9.0 | 0.00 | 0.05 | 0.00 | 86 | 1013.9 |
| 20260508102045 | 70 | 44 | 5.0 | 9.0 | 0.00 | 0.05 | 0.00 | 86 | 1014.0 |
| 20260508101556 | 70 | 29 | 3.0 | 9.0 | 0.00 | 0.05 | 0.00 | 86 | 1013.8 |
| 20260508101048 | 71 | 10 | 4.0 | 9.0 | 0.00 | 0.05 | 0.00 | 86 | 1013.8 |
| 20260508100545 | 71 | 12 | 4.0 | 8.0 | 0.00 | 0.05 | 0.00 | 86 | 1013.7 |
| 20260508100052 | 71 | 34 | 3.0 | 8.0 | 0.00 | 0.05 | 0.00 | 86 | 1013.7 |
| 20260508095545 | 71 | 30 | 4.0 | 8.0 | 0.00 | 0.05 | 0.00 | 86 | 1013.7 |
| 20260508095047 | 71 | 22 | 4.0 | 10.0 | 0.00 | 0.05 | 0.00 | 86 | 1013.7 |
| 20260508094554 | 71 | 28 | 4.0 | 10.0 | 0.00 | 0.05 | 0.00 | 86 | 1013.6 |
| 20260508094044 | 71 | 341 | 3.0 | 10.0 | 0.00 | 0.05 | 0.00 | 86 | 1013.5 |
| 20260508093546 | 71 | 5 | 3.0 | 10.0 | 0.00 | 0.05 | 0.00 | 86 | 1013.4 |
| 20260508093050 | 71 | 43 | 5.0 | 10.0 | 0.00 | 0.05 | 0.00 | 86 | 1013.2 |
| 20260508092544 | 71 | 35 | 5.0 | 11.0 | 0.00 | 0.05 | 0.00 | 86 | 1013.3 |
| 20260508092044 | 71 | 53 | 3.0 | 11.0 | 0.00 | 0.05 | 0.00 | 86 | 1013.3 |
| 20260508091556 | 71 | 348 | 4.0 | 10.0 | 0.00 | 0.05 | 0.00 | 87 | 1013.3 |
| 20260508091045 | 71 | 32 | 4.0 | 10.0 | 0.00 | 0.05 | 0.00 | 87 | 1013.3 |
| 20260508090547 | 71 | 15 | 5.0 | 10.0 | 0.00 | 0.05 | 0.00 | 87 | 1013.2 |
| 20260508085545 | 71 | 5 | 4.0 | 10.0 | 0.00 | 0.05 | 0.00 | 87 | 1013.2 |
| 20260508085045 | 71 | 36 | 6.0 | 10.0 | 0.00 | 0.05 | 0.00 | 87 | 1013.3 |
| 20260508084554 | 72 | 34 | 5.0 | 9.0 | 0.00 | 0.05 | 0.00 | 87 | 1013.1 |
| 20260508084045 | 72 | 24 | 4.0 | 9.0 | 0.00 | 0.05 | 0.00 | 87 | 1013.1 |
| 20260508083546 | 72 | 26 | 4.0 | 9.0 | 0.00 | 0.05 | 0.00 | 87 | 1013.1 |
| 20260508083055 | 72 | 5 | 4.0 | 11.0 | 0.00 | 0.05 | 0.00 | 87 | 1013.3 |
| 20260508082545 | 72 | 29 | 5.0 | 13.0 | 0.00 | 0.05 | 0.00 | 87 | 1013.1 |
| 20260508082045 | 72 | 355 | 5.0 | 13.0 | 0.00 | 0.05 | 0.00 | 87 | 1013.0 |
| 20260508081605 | 72 | 338 | 7.0 | 13.0 | 0.00 | 0.05 | 0.00 | 87 | 1012.9 |
| 20260508081044 | 73 | 24 | 6.0 | 9.0 | 0.00 | 0.05 | 0.00 | 87 | 1013.0 |
| 20260508080544 | 73 | 34 | 4.0 | 8.0 | 0.00 | 0.05 | 0.00 | 87 | 1013.1 |
| 20260508080053 | 73 | 15 | 4.0 | 8.0 | 0.00 | 0.05 | 0.00 | 88 | 1013.2 |
| 20260508075544 | 73 | 15 | 3.0 | 8.0 | 0.00 | 0.05 | 0.00 | 88 | 1013.2 |
| 20260508075044 | 73 | 25 | 2.0 | 8.0 | 0.00 | 0.05 | 0.00 | 88 | 1013.2 |
| 20260508074553 | 73 | 9 | 3.0 | 8.0 | 0.00 | 0.05 | 0.00 | 88 | 1013.4 |
| 20260508074045 | 73 | 360 | 3.0 | 7.0 | 0.00 | 0.05 | 0.00 | 88 | 1013.5 |
| 20260508073547 | 74 | 355 | 3.0 | 7.0 | 0.00 | 0.05 | 0.00 | 88 | 1013.6 |
| 20260508073102 | 74 | 9 | 2.0 | 9.0 | 0.00 | 0.05 | 0.00 | 88 | 1013.4 |
| 20260508072546 | 74 | 15 | 4.0 | 9.0 | 0.00 | 0.05 | 0.00 | 88 | 1013.3 |
| 20260508072048 | 74 | 17 | 4.0 | 9.0 | 0.00 | 0.05 | 0.00 | 88 | 1013.3 |
| 20260508071550 | 74 | 13 | 3.0 | 5.0 | 0.00 | 0.05 | 0.00 | 88 | 1013.3 |
| 20260508071048 | 74 | 17 | 2.0 | 6.0 | 0.00 | 0.05 | 0.00 | 88 | 1013.4 |
| 20260508070545 | 74 | 347 | 2.0 | 6.0 | 0.00 | 0.05 | 0.00 | 88 | 1013.5 |
| 20260508070054 | 74 | 355 | 3.0 | 5.0 | 0.00 | 0.05 | 0.00 | 88 | 1013.5 |
| 20260508065548 | 74 | 348 | 2.0 | 4.0 | 0.00 | 0.05 | 0.00 | 88 | 1013.5 |
| 20260508065044 | 74 | 335 | 1.0 | 4.0 | 0.00 | 0.05 | 0.00 | 88 | 1013.6 |
| 20260508064606 | 74 | 0 | 0.0 | 0.0 | 0.00 | 0.05 | 0.00 | 88 | 1013.5 |
| 20260508064046 | 75 | 0 | 0.0 | 2.0 | 0.00 | 0.05 | 0.00 | 88 | 1013.6 |
| 20260508063545 | 75 | 0 | 0.0 | 3.0 | 0.00 | 0.05 | 0.00 | 88 | 1013.6 |
| 20260508063050 | 75 | 0 | 0.0 | 3.0 | 0.00 | 0.05 | 0.00 | 88 | 1013.6 |
| 20260508062545 | 75 | 290 | 0.0 | 3.0 | 0.00 | 0.05 | 0.00 | 88 | 1013.6 |
| 20260508062045 | 75 | 0 | 0.0 | 3.0 | 0.00 | 0.05 | 0.00 | 88 | 1013.6 |
| 20260508061601 | 75 | 0 | 0.0 | 3.0 | 0.00 | 0.05 | 0.00 | 88 | 1013.8 |
| 20260508061045 | 75 | 0 | 1.0 | 3.0 | 0.00 | 0.05 | 0.00 | 88 | 1013.6 |
| 20260508060546 | 75 | 284 | 1.0 | 4.0 | 0.00 | 0.05 | 0.00 | 88 | 1013.8 |
| 20260508060052 | 75 | 0 | 1.0 | 4.0 | 0.00 | 0.05 | 0.00 | 88 | 1013.7 |
| 20260508055549 | 75 | 317 | 1.0 | 4.0 | 0.00 | 0.05 | 0.00 | 88 | 1013.7 |
| 20260508055045 | 75 | 0 | 0.0 | 0.0 | 0.00 | 0.05 | 0.00 | 88 | 1013.9 |
| 20260508054617 | 75 | 0 | 0.0 | 0.0 | 0.00 | 0.05 | 0.00 | 88 | 1014.0 |
| 20260508054046 | 75 | 0 | 0.0 | 0.0 | 0.00 | 0.05 | 0.00 | 88 | 1014.1 |
| 20260508053545 | 75 | 0 | 0.0 | 0.0 | 0.00 | 0.05 | 0.00 | 88 | 1014.2 |
| 20260508053051 | 75 | 0 | 0.0 | 0.0 | 0.00 | 0.05 | 0.00 | 88 | 1014.2 |
| 20260508052550 | 75 | 0 | 0.0 | 0.0 | 0.00 | 0.05 | 0.00 | 87 | 1014.2 |
| 20260508052047 | 75 | 0 | 0.0 | 0.0 | 0.00 | 0.05 | 0.00 | 87 | 1014.0 |
| 20260508051558 | 75 | 0 | 0.0 | 2.0 | 0.00 | 0.05 | 0.00 | 87 | 1014.1 |
| 20260508051046 | 75 | 0 | 0.0 | 4.0 | 0.00 | 0.05 | 0.00 | 88 | 1014.0 |
| 20260508050546 | 75 | 278 | 1.0 | 4.0 | 0.00 | 0.05 | 0.00 | 87 | 1014.2 |
| 20260508050054 | 75 | 275 | 2.0 | 4.0 | 0.00 | 0.05 | 0.00 | 87 | 1014.3 |
| 20260508045544 | 75 | 273 | 1.0 | 4.0 | 0.00 | 0.05 | 0.05 | 87 | 1014.1 |
| 20260508045044 | 75 | 280 | 2.0 | 4.0 | 0.00 | 0.05 | 0.05 | 87 | 1014.0 |
| 20260508044551 | 75 | 267 | 1.0 | 3.0 | 0.00 | 0.05 | 0.05 | 87 | 1013.9 |
| 20260508044048 | 75 | 0 | 1.0 | 6.0 | 0.00 | 0.05 | 0.05 | 87 | 1013.9 |
| 20260508043548 | 75 | 0 | 2.0 | 8.0 | 0.00 | 0.05 | 0.05 | 87 | 1014.0 |
| 20260508043056 | 75 | 279 | 1.0 | 8.0 | 0.00 | 0.05 | 0.05 | 87 | 1014.1 |
| 20260508042550 | 75 | 257 | 4.0 | 8.0 | 0.00 | 0.05 | 0.05 | 87 | 1014.2 |
| 20260508042047 | 75 | 277 | 2.0 | 6.0 | 0.00 | 0.05 | 0.05 | 87 | 1014.2 |
| 20260508041551 | 75 | 261 | 1.0 | 4.0 | 0.00 | 0.05 | 0.05 | 87 | 1014.1 |
| 20260508041048 | 75 | 260 | 0.0 | 4.0 | 0.00 | 0.05 | 0.05 | 87 | 1014.1 |
| 20260508040548 | 75 | 294 | 1.0 | 4.0 | 0.00 | 0.05 | 0.05 | 86 | 1014.3 |
| 20260508040057 | 75 | 293 | 2.0 | 4.0 | 0.00 | 0.05 | 0.05 | 86 | 1014.4 |
| 20260508035551 | 75 | 317 | 1.0 | 3.0 | 0.00 | 0.05 | 0.05 | 86 | 1014.4 |
| 20260508035048 | 75 | 282 | 1.0 | 3.0 | 0.00 | 0.05 | 0.05 | 86 | 1014.4 |
| 20260508034550 | 75 | 287 | 1.0 | 4.0 | 0.00 | 0.05 | 0.05 | 86 | 1014.3 |
| 20260508034048 | 75 | 0 | 1.0 | 4.0 | 0.00 | 0.05 | 0.05 | 86 | 1014.4 |
| 20260508033547 | 75 | 337 | 1.0 | 6.0 | 0.00 | 0.05 | 0.05 | 86 | 1014.5 |
| 20260508033050 | 75 | 311 | 1.0 | 7.0 | 0.00 | 0.05 | 0.05 | 86 | 1014.4 |
| 20260508032548 | 75 | 302 | 2.0 | 7.0 | 0.00 | 0.05 | 0.05 | 86 | 1014.5 |
| 20260508032050 | 75 | 296 | 1.0 | 6.0 | 0.00 | 0.05 | 0.05 | 86 | 1014.5 |
| 20260508031557 | 75 | 317 | 2.0 | 6.0 | 0.00 | 0.05 | 0.05 | 86 | 1014.4 |
| 20260508031048 | 75 | 306 | 2.0 | 5.0 | 0.00 | 0.05 | 0.05 | 86 | 1014.3 |
| 20260508030548 | 75 | 0 | 0.0 | 4.0 | 0.00 | 0.05 | 0.05 | 86 | 1014.1 |
| 20260508030057 | 75 | 0 | 0.0 | 0.0 | 0.00 | 0.05 | 0.05 | 85 | 1013.9 |
| 20260508025546 | 75 | 0 | 0.0 | 0.0 | 0.00 | 0.05 | 0.05 | 85 | 1013.9 |
| 20260508025048 | 75 | 0 | 0.0 | 3.0 | 0.00 | 0.05 | 0.05 | 85 | 1013.8 |
| 20260508024550 | 75 | 0 | 0.0 | 4.0 | 0.00 | 0.05 | 0.05 | 85 | 1013.8 |
| 20260508024048 | 75 | 275 | 1.0 | 4.0 | 0.00 | 0.05 | 0.05 | 85 | 1013.8 |
| 20260508023547 | 75 | 272 | 1.0 | 4.0 | 0.00 | 0.05 | 0.05 | 85 | 1013.7 |
| 20260508023054 | 75 | 0 | 1.0 | 3.0 | 0.00 | 0.05 | 0.05 | 85 | 1013.7 |
| 20260508022548 | 75 | 286 | 1.0 | 3.0 | 0.00 | 0.05 | 0.05 | 85 | 1013.7 |
| 20260508022048 | 75 | 0 | 0.0 | 3.0 | 0.00 | 0.05 | 0.05 | 85 | 1013.8 |
| 20260508021559 | 75 | 0 | 0.0 | 3.0 | 0.00 | 0.05 | 0.05 | 85 | 1013.7 |
| 20260508021048 | 75 | 275 | 0.0 | 3.0 | 0.00 | 0.05 | 0.05 | 85 | 1013.8 |
| 20260508020547 | 75 | 275 | 0.0 | 3.0 | 0.00 | 0.05 | 0.05 | 85 | 1013.7 |
| 20260508020053 | 75 | 0 | 1.0 | 3.0 | 0.00 | 0.05 | 0.05 | 84 | 1013.7 |
| 20260508015547 | 75 | 275 | 1.0 | 3.0 | 0.00 | 0.05 | 0.05 | 84 | 1013.7 |
| 20260508015048 | 75 | 0 | 1.0 | 4.0 | 0.00 | 0.05 | 0.05 | 84 | 1013.6 |
| 20260508014551 | 75 | 274 | 0.0 | 4.0 | 0.00 | 0.05 | 0.05 | 84 | 1013.5 |
| 20260508014047 | 75 | 0 | 0.0 | 4.0 | 0.00 | 0.05 | 0.05 | 84 | 1013.5 |
| 20260508013547 | 75 | 0 | 0.0 | 3.0 | 0.00 | 0.05 | 0.05 | 84 | 1013.3 |
| 20260508013054 | 75 | 275 | 0.0 | 3.0 | 0.00 | 0.05 | 0.05 | 84 | 1013.3 |
| 20260508012548 | 75 | 275 | 0.0 | 3.0 | 0.00 | 0.05 | 0.05 | 84 | 1013.3 |
| 20260508012052 | 75 | 274 | 0.0 | 4.0 | 0.00 | 0.05 | 0.05 | 83 | 1013.3 |